When you browse on this site, cookies collect data to enhance your experience and personalize the content and advertising you see.
Visit our Privacy Policy to learn more. By continuing to use the site, you agree to this use of cookies and data.
  • Em Portugal
  • Lista de países
  • Para 7 dias
  • Temperatura da água
  • Mapas de satélite
  • Mapa do tempo
  • Widgets de tempo
  • user-avatar
    Iniciar Sessão

    Previsão horária em Sinemorec

    Hoje, 18 Fevereiro, Segunda-feira

    Tempo Temperatura Precipitação Vento Pressão Humidade
    00:00 +7°C° 0 mm 2 m/s 766 mmHg 71%
    01:00 +7°C° 0 mm 2 m/s 766 mmHg 72%
    02:00 +7°C° 0 mm 1 m/s 765 mmHg 72%
    03:00 +6°C° 0 mm 2 m/s 765 mmHg 72%
    04:00 +6°C° 0 mm 2 m/s 765 mmHg 72%
    05:00 +6°C° 0 mm 2 m/s 765 mmHg 71%
    06:00 +6°C° 0 mm 2 m/s 765 mmHg 70%
    07:00 +7°C° 0 mm 2 m/s 766 mmHg 69%
    08:00 +7°C° 0 mm 2 m/s 766 mmHg 65%
    09:00 +9°C° 0 mm 2 m/s 766 mmHg 60%
    10:00 +10°C° 0 mm 2 m/s 766 mmHg 55%
    11:00 +12°C° 0 mm 3 m/s 766 mmHg 50%
    12:00 +13°C° 0 mm 3 m/s 766 mmHg 51%
    13:00 +13°C° 0 mm 3 m/s 766 mmHg 51%
    14:00 +15°C° 0 mm 2 m/s 765 mmHg 49%
    15:00 +14°C° 0 mm 2 m/s 765 mmHg 54%
    16:00 +13°C° 0 mm 2 m/s 765 mmHg 60%
    17:00 +12°C° 0 mm 2 m/s 765 mmHg 65%
    18:00 +10°C° 0 mm 2 m/s 765 mmHg 69%
    19:00 +10°C° 0 mm 1 m/s 766 mmHg 74%
    20:00 +9°C° 0 mm 1 m/s 766 mmHg 78%
    21:00 +9°C° 0 mm 1 m/s 766 mmHg 78%
    22:00 +8°C° 0 mm 1 m/s 766 mmHg 79%
    23:00 +8°C° 0 mm 1 m/s 766 mmHg 80%

    Amanhã, 19 Fevereiro, Terça-feira

    Tempo Temperatura Precipitação Vento Pressão Humidade
    00:00 +8°C° 0 mm 1 m/s 766 mmHg 81%
    01:00 +8°C° 0 mm 1 m/s 766 mmHg 81%
    02:00 +8°C° 0 mm 1 m/s 766 mmHg 82%
    03:00 +8°C° 0 mm 1 m/s 766 mmHg 84%
    04:00 +7°C° 0 mm 1 m/s 766 mmHg 85%
    05:00 +7°C° 0 mm 1 m/s 766 mmHg 86%
    06:00 +8°C° 0 mm 1 m/s 766 mmHg 86%
    07:00 +8°C° 0 mm 1 m/s 766 mmHg 87%
    08:00 +7°C° 0 mm 2 m/s 766 mmHg 87%
    09:00 +9°C° 0 mm 2 m/s 766 mmHg 81%
    10:00 +12°C° 0 mm 2 m/s 766 mmHg 75%
    11:00 +12°C° 0 mm 3 m/s 766 mmHg 68%
    12:00 +13°C° 0 mm 3 m/s 766 mmHg 67%
    13:00 +13°C° 0 mm 3 m/s 765 mmHg 66%
    14:00 +13°C° 0 mm 3 m/s 765 mmHg 64%
    15:00 +13°C° 0 mm 3 m/s 765 mmHg 68%
    16:00 +12°C° 0 mm 3 m/s 764 mmHg 72%
    17:00 +11°C° 0 mm 3 m/s 764 mmHg 76%
    18:00 +10°C° 0 mm 3 m/s 764 mmHg 81%
    19:00 +9°C° 0 mm 3 m/s 764 mmHg 85%
    20:00 +8°C° 0 mm 3 m/s 764 mmHg 89%
    21:00 +8°C° 0 mm 3 m/s 764 mmHg 89%
    22:00 +8°C° 0 mm 3 m/s 764 mmHg 89%
    23:00 +8°C° 0 mm 2 m/s 764 mmHg 88%

    Depois de amanhã, 20 Fevereiro, Quarta-feira

    Tempo Temperatura Precipitação Vento Pressão Humidade
    00:00 +7°C° 0 mm 2 m/s 764 mmHg 88%
    01:00 +7°C° 0 mm 2 m/s 764 mmHg 87%
    02:00 +7°C° 0 mm 2 m/s 764 mmHg 86%
    03:00 +7°C° 0 mm 2 m/s 763 mmHg 85%
    04:00 +8°C° 0 mm 1 m/s 763 mmHg 84%
    05:00 +8°C° 0 mm 1 m/s 763 mmHg 82%
    06:00 +8°C° 0 mm 1 m/s 763 mmHg 79%
    07:00 +8°C° 0 mm 1 m/s 763 mmHg 76%
    08:00 +9°C° 0 mm 1 m/s 763 mmHg 73%
    09:00 +11°C° 0 mm 1 m/s 763 mmHg 66%
    10:00 +13°C° 0 mm 1 m/s 763 mmHg 59%
    11:00 +15°C° 0 mm 1 m/s 763 mmHg 51%
    12:00 +16°C° 0 mm 1 m/s 763 mmHg 51%
    13:00 +16°C° 0 mm 1 m/s 762 mmHg 51%
    14:00 +18°C° 0 mm 1 m/s 762 mmHg 50%
    15:00 +16°C° 0 mm 1 m/s 762 mmHg 55%
    16:00 +16°C° 0 mm 1 m/s 762 mmHg 59%
    17:00 +15°C° 0 mm 1 m/s 762 mmHg 63%
    18:00 +14°C° 0 mm 1 m/s 762 mmHg 66%
    19:00 +13°C° 0 mm 2 m/s 762 mmHg 70%
    20:00 +12°C° 0 mm 2 m/s 763 mmHg 73%
    21:00 +10°C° 0 mm 2 m/s 763 mmHg 73%
    22:00 +10°C° 0 mm 3 m/s 763 mmHg 72%
    23:00 +9°C° 0 mm 3 m/s 764 mmHg 71%

    21 Fevereiro, Quinta-feira

    Tempo Temperatura Precipitação Vento Pressão Humidade
    00:00 +9°C° 0 mm 3 m/s 764 mmHg 71%
    01:00 +8°C° 0 mm 4 m/s 764 mmHg 71%
    02:00 +8°C° 0 mm 4 m/s 764 mmHg 71%
    03:00 +7°C° 0 mm 4 m/s 764 mmHg 74%
    04:00 +7°C° 0 mm 5 m/s 764 mmHg 76%
    05:00 +6°C° 0 mm 5 m/s 764 mmHg 78%
    06:00 +7°C° 0 mm 5 m/s 765 mmHg 77%
    07:00 +7°C° 0 mm 4 m/s 765 mmHg 77%
    08:00 +7°C° 0 mm 4 m/s 766 mmHg 76%
    09:00 +8°C° 0 mm 4 m/s 766 mmHg 72%
    10:00 +10°C° 0 mm 4 m/s 766 mmHg 68%
    11:00 +11°C° 0 mm 3 m/s 767 mmHg 65%
    12:00 +12°C° 0 mm 3 m/s 766 mmHg 63%
    13:00 +12°C° 0 mm 3 m/s 766 mmHg 61%
    14:00 +14°C° 0 mm 2 m/s 766 mmHg 59%
    15:00 +13°C° 0 mm 2 m/s 766 mmHg 62%
    16:00 +13°C° 0 mm 2 m/s 766 mmHg 65%
    17:00 +12°C° 0 mm 1 m/s 766 mmHg 68%
    18:00 +11°C° 0 mm 1 m/s 766 mmHg 74%
    19:00 +10°C° 0 mm 1 m/s 766 mmHg 80%
    20:00 +9°C° 0 mm 1 m/s 766 mmHg 87%
    21:00 +8°C° 0 mm 2 m/s 766 mmHg 86%
    22:00 +8°C° 0 mm 2 m/s 766 mmHg 85%
    23:00 +8°C° 0 mm 2 m/s 766 mmHg 84%

    22 Fevereiro, Sexta-feira

    Tempo Temperatura Precipitação Vento Pressão Humidade
    00:00 +7°C° 0 mm 2 m/s 765 mmHg 82%
    01:00 +7°C° 0 mm 2 m/s 765 mmHg 79%
    02:00 +7°C° 0 mm 3 m/s 765 mmHg 77%
    03:00 +8°C° 0 mm 3 m/s 764 mmHg 75%
    04:00 +8°C° 0 mm 3 m/s 764 mmHg 73%
    05:00 +8°C° 0 mm 3 m/s 763 mmHg 71%
    06:00 +8°C° 0 mm 3 m/s 763 mmHg 70%
    07:00 +8°C° 0 mm 3 m/s 762 mmHg 70%
    08:00 +7°C° 0 mm 4 m/s 762 mmHg 69%
    09:00 +7°C° 0.4 mm 4 m/s 762 mmHg 71%
    10:00 +7°C° 0.4 mm 4 m/s 761 mmHg 73%
    11:00 +7°C° 0.4 mm 4 m/s 761 mmHg 74%
    12:00 +7°C° 0.6 mm 4 m/s 761 mmHg 75%
    13:00 +7°C° 0.6 mm 4 m/s 760 mmHg 76%
    14:00 +8°C° 0.6 mm 5 m/s 760 mmHg 77%
    15:00 +8°C° 0.1 mm 5 m/s 759 mmHg 79%
    16:00 +8°C° 0.1 mm 5 m/s 759 mmHg 80%
    17:00 +8°C° 0.1 mm 5 m/s 759 mmHg 81%
    18:00 +6°C° 0.5 mm 8 m/s 760 mmHg 82%
    19:00 +4°C° 0.5 mm 11 m/s 761 mmHg 83%
    20:00 +3°C° 0.5 mm 14 m/s 761 mmHg 84%
    21:00 +1°C° 0.4 mm 13 m/s 762 mmHg 84%
    22:00 0°C° 0.4 mm 13 m/s 763 mmHg 85%
    23:00 -1°C° 0.4 mm 13 m/s 764 mmHg 85%

    23 Fevereiro, Sábado

    Tempo Temperatura Precipitação Vento Pressão Humidade
    00:00 -2°C° 0.4 mm 13 m/s 765 mmHg 84%
    01:00 -4°C° 0.4 mm 14 m/s 765 mmHg 84%
    02:00 -6°C° 0.4 mm 14 m/s 766 mmHg 84%
    03:00 -6°C° 0.4 mm 14 m/s 767 mmHg 80%
    04:00 -8°C° 0.4 mm 14 m/s 768 mmHg 76%
    05:00 -7°C° 0.4 mm 13 m/s 769 mmHg 72%
    06:00 -7°C° 0.2 mm 13 m/s 769 mmHg 73%
    07:00 -7°C° 0.2 mm 13 m/s 770 mmHg 73%
    08:00 -7°C° 0.2 mm 12 m/s 770 mmHg 74%
    09:00 -7°C° 0.3 mm 12 m/s 770 mmHg 72%
    10:00 -6°C° 0.3 mm 12 m/s 771 mmHg 70%
    11:00 -6°C° 0.3 mm 12 m/s 771 mmHg 69%
    12:00 -6°C° 0.2 mm 12 m/s 771 mmHg 66%
    13:00 -5°C° 0.2 mm 12 m/s 770 mmHg 64%
    14:00 -5°C° 0.2 mm 12 m/s 770 mmHg 61%
    15:00 -4°C° 0.2 mm 11 m/s 770 mmHg 60%
    16:00 -4°C° 0.2 mm 11 m/s 770 mmHg 59%
    17:00 -4°C° 0.2 mm 11 m/s 770 mmHg 58%
    18:00 -4°C° 0.1 mm 10 m/s 770 mmHg 59%
    19:00 -4°C° 0.1 mm 10 m/s 770 mmHg 60%
    20:00 -5°C° 0.1 mm 10 m/s 770 mmHg 61%
    21:00 -5°C° 0.2 mm 10 m/s 770 mmHg 61%
    22:00 -5°C° 0.2 mm 10 m/s 770 mmHg 62%
    23:00 -5°C° 0.2 mm 10 m/s 770 mmHg 62%
    Mostrar mais